Chicopee, MA

2:26 AM EST on January 19, 2017 (GMT -0500)
Westover Air Reserve Base / Metropolitan Airport

Weather History for KCEF - December, 2013

Change the Weather History Date:

Monday, December 9, 2013

  Actual Average Record
Temperature  
Mean Temperature 28 °F -  
Max Temperature 32 °F 38 °F 53 °F (2008)
Min Temperature 24 °F 23 °F 5 °F (2000)
Degree Days  
Heating Degree Days 37    
Moisture  
Dew Point 27 °F    
Average Humidity 94    
Maximum Humidity 100    
Minimum Humidity 64    
Precipitation  
Precipitation 0.11 in - - ()
Sea Level Pressure  
Sea Level Pressure 30.21 in    
Wind  
Wind Speed 5 mph (NNE)    
Max Wind Speed 9 mph    
Max Gust Speed -    
Visibility 5 miles    
Events Fog , Rain , Snow    
Averages and records for this station are not official NWS values.
T = Trace of Precipitation, MM = Missing Value Source: NWS Daily Summary

Daily Weather History Graph

Daily Weather History Graph

Search for Another Location

Airport or City:

Trip Planner

Search our weather history database for the weather conditions in past years. The results will help you decide how hot, cold, wet, or windy it might be!

Date:

Astronomy

Dec. 09, 2013 Rise Set
Actual Time 7:07 AM EST 4:17 PM EST
Civil Twilight 6:35 AM EST 4:49 PM EST
Nautical Twilight 6:00 AM EST 5:24 PM EST
Astronomical Twilight 5:26 AM EST 5:58 PM EST
Moon 11:52 AM EST (12/9) No Moon Set
Length of Visible Light 10h 14m
Length of Day
9h 10m
Waxing Crescent, 51% of the Moon is Illuminated
Dec 9
Waxing Crescent
Dec 17
Full
Dec 25
Last Quarter
Jan 1
New
Jan 7
First Quarter

Hourly Weather History & Observations

Time (EST) Temp. Windchill Dew Point Humidity Pressure Visibility Wind Dir Wind Speed Gust Speed Precip Events Conditions
12:08 AM 28.4 °F 23.3 °F 17.6 °F 64% 30.45 in 10.0 mi ENE 4.6 mph - N/A   Scattered Clouds
12:21 AM 28.4 °F 23.3 °F 17.6 °F 64% 30.45 in 10.0 mi ENE 4.6 mph - N/A Snow Light Snow
12:37 AM 28.4 °F 24.6 °F 17.6 °F 64% 30.44 in 10.0 mi Variable 3.5 mph - N/A   Partly Cloudy
12:58 AM 28.2 °F 21.0 °F 18.1 °F 66% 30.45 in 10.0 mi Variable 6.9 mph - 0.00 in   Scattered Clouds
1:07 AM 28.4 °F 19.7 °F 17.6 °F 64% 30.42 in 10.0 mi East 9.2 mph - N/A Snow Light Snow
1:12 AM 28.4 °F 21.2 °F 19.4 °F 69% 30.42 in 10.0 mi East 6.9 mph - N/A Snow Light Snow
1:13 AM 28.4 °F 22.2 °F 19.4 °F 69% 30.42 in 10.0 mi Variable 5.8 mph - N/A Snow Light Snow
1:21 AM 28.4 °F 21.2 °F 19.4 °F 69% 30.41 in 10.0 mi Variable 6.9 mph - N/A Snow Light Snow
1:24 AM 26.6 °F 19.1 °F 19.4 °F 74% 30.41 in 10.0 mi East 6.9 mph - N/A   Mostly Cloudy
1:47 AM 26.6 °F 18.2 °F 19.4 °F 74% 30.42 in 10.0 mi East 8.1 mph - N/A Snow Light Snow
1:58 AM 27.3 °F 20.9 °F 19.8 °F 73% 30.45 in 10.0 mi East 5.8 mph - 0.00 in Snow Light Snow
2:01 AM 26.6 °F 22.6 °F 19.4 °F 74% 30.42 in 10.0 mi Variable 3.5 mph - N/A Snow Light Snow
2:17 AM 26.6 °F 21.2 °F 21.2 °F 80% 30.42 in 6.0 mi East 4.6 mph - N/A   Haze
2:22 AM 26.6 °F 20.0 °F 23.0 °F 86% 30.41 in 5.0 mi Variable 5.8 mph - N/A Snow Light Snow
2:29 AM 26.6 °F 20.0 °F 23.0 °F 86% 30.41 in 4.0 mi East 5.8 mph - N/A Snow Light Snow
2:37 AM 26.6 °F - 23.0 °F 86% 30.40 in 2.5 mi ENE 2.3 mph - N/A Snow Light Snow
2:40 AM 26.6 °F - 24.8 °F 93% 30.40 in 3.0 mi ENE 2.3 mph - N/A Snow Light Snow
2:58 AM 25.7 °F 21.5 °F 24.4 °F 95% 30.42 in 4.0 mi Variable 3.5 mph - 0.00 in Snow Light Snow
3:22 AM 24.8 °F 17.9 °F 24.8 °F 100% 30.39 in 5.0 mi ENE 5.8 mph - N/A Snow Light Snow
3:31 AM 24.8 °F 16.9 °F 24.8 °F 100% 30.39 in 8.0 mi ENE 6.9 mph - N/A   Overcast
3:39 AM 24.8 °F 17.9 °F 24.8 °F 100% 30.38 in 7.0 mi NE 5.8 mph - N/A   Overcast
3:58 AM 25.3 °F 17.6 °F 23.7 °F 94% 30.39 in 9.0 mi NE 6.9 mph - 0.00 in   Overcast
4:17 AM 24.8 °F 19.1 °F 24.8 °F 100% 30.35 in 10.0 mi NNE 4.6 mph - N/A   Overcast
4:44 AM 24.8 °F 17.9 °F 24.8 °F 100% 30.33 in 10.0 mi NE 5.8 mph - N/A   Overcast
4:48 AM 24.8 °F 19.1 °F 24.8 °F 100% 30.33 in 10.0 mi NNE 4.6 mph - N/A   Light Freezing Drizzle
4:49 AM 24.8 °F 19.1 °F 24.8 °F 100% 30.33 in 9.0 mi NNE 4.6 mph - N/A   Light Freezing Drizzle
4:58 AM 25.5 °F 19.9 °F 25.0 °F 98% 30.36 in 9.0 mi NE 4.6 mph - 0.00 in   Light Freezing Drizzle
5:11 AM 24.8 °F 19.1 °F 24.8 °F 100% 30.32 in 10.0 mi NNE 4.6 mph - N/A   Overcast
5:15 AM 24.8 °F 19.1 °F 24.8 °F 100% 30.31 in 10.0 mi NNE 4.6 mph - N/A   Overcast
5:17 AM 24.8 °F 19.1 °F 24.8 °F 100% 30.31 in 10.0 mi NNE 4.6 mph - N/A   Overcast
5:24 AM 24.8 °F 19.1 °F 24.8 °F 100% 30.31 in 9.0 mi NNE 4.6 mph - N/A   Light Freezing Drizzle
5:38 AM 26.6 °F 21.2 °F 24.8 °F 93% 30.30 in 8.0 mi NNE 4.6 mph - N/A   Light Freezing Drizzle
5:48 AM 26.6 °F 21.2 °F 24.8 °F 93% 30.30 in 8.0 mi North 4.6 mph - N/A   Light Freezing Drizzle
5:58 AM 26.1 °F 20.5 °F 25.5 °F 98% 30.33 in 9.0 mi North 4.6 mph - 0.00 in   Light Freezing Drizzle
6:00 AM 26.6 °F 21.2 °F 24.8 °F 93% 30.29 in 9.0 mi North 4.6 mph - N/A Snow Light Snow
6:18 AM 26.6 °F 21.2 °F 26.6 °F 100% 30.28 in 6.0 mi NNE 4.6 mph - N/A   Overcast
6:19 AM 26.6 °F 21.2 °F 26.6 °F 100% 30.28 in 6.0 mi North 4.6 mph - N/A   Light Freezing Drizzle
6:22 AM 26.6 °F 21.2 °F 26.6 °F 100% 30.28 in 6.0 mi North 4.6 mph - N/A   Light Freezing Drizzle
6:38 AM 26.6 °F 21.2 °F 26.6 °F 100% 30.27 in 10.0 mi North 4.6 mph - N/A   Light Freezing Drizzle
6:51 AM 26.6 °F 20.0 °F 26.6 °F 100% 30.24 in 9.0 mi NNE 5.8 mph - N/A   Overcast
6:56 AM 26.6 °F 20.0 °F 26.6 °F 100% 30.25 in 9.0 mi North 5.8 mph - N/A   Light Freezing Drizzle
6:58 AM 26.6 °F 20.0 °F 26.6 °F 100% 30.28 in 9.0 mi North 5.8 mph - 0.00 in   Light Freezing Drizzle
7:01 AM 26.6 °F 20.0 °F 26.6 °F 100% 30.24 in 9.0 mi North 5.8 mph - N/A Snow Light Snow
7:19 AM 26.6 °F 21.2 °F 26.6 °F 100% 30.24 in 9.0 mi North 4.6 mph - N/A Rain Light Freezing Rain
7:25 AM 28.4 °F 22.2 °F 26.6 °F 93% 30.23 in 3.0 mi NNW 5.8 mph - N/A Rain Light Freezing Rain
7:33 AM 28.4 °F 23.3 °F 28.4 °F 100% 30.23 in 3.0 mi North 4.6 mph - N/A Rain Light Freezing Rain
7:57 AM 28.8 °F 21.7 °F 28.2 °F 98% 30.26 in 4.0 mi NNW 6.9 mph - 0.02 in Rain Light Freezing Rain
8:01 AM 28.4 °F 23.3 °F 28.4 °F 100% 30.22 in 4.0 mi North 4.6 mph - N/A Rain Light Freezing Rain
8:15 AM 28.4 °F 23.3 °F 28.4 °F 100% 30.20 in 2.5 mi NNE 4.6 mph - N/A Rain Light Freezing Rain
8:39 AM 30.2 °F 25.4 °F 28.4 °F 93% 30.19 in 3.0 mi North 4.6 mph - N/A   Light Freezing Drizzle
8:58 AM 29.8 °F 24.9 °F 29.3 °F 98% 30.22 in 2.5 mi NNW 4.6 mph - 0.04 in Rain Light Freezing Rain
9:17 AM 32.0 °F 27.5 °F 30.2 °F 93% 30.19 in 2.0 mi NNW 4.6 mph - N/A Rain Light Freezing Rain
9:42 AM 32.0 °F 26.4 °F 32.0 °F 100% 30.19 in 2.0 mi NNW 5.8 mph - N/A   Light Freezing Drizzle
9:58 AM 30.6 °F 25.8 °F 30.2 °F 99% 30.20 in 2.0 mi North 4.6 mph - 0.03 in   Light Freezing Drizzle
10:52 AM 32.0 °F 26.4 °F 32.0 °F 100% 30.14 in 1.5 mi North 5.8 mph - N/A Rain Light Freezing Rain
10:58 AM 31.3 °F 26.6 °F 30.9 °F 99% 30.15 in 1.5 mi NNE 4.6 mph - 0.01 in Rain Light Freezing Rain
11:26 AM 32.0 °F 27.5 °F 32.0 °F 100% 30.10 in 1.2 mi North 4.6 mph - N/A   Light Freezing Drizzle
11:58 AM 31.8 °F 28.5 °F 31.6 °F 99% 30.09 in 1.2 mi NNE 3.5 mph - 0.00 in   Light Freezing Drizzle
12:52 PM 32.0 °F 28.7 °F 32.0 °F 100% 30.01 in 1.0 mi North 3.5 mph - N/A   Overcast
12:58 PM 32.4 °F 29.1 °F 32.2 °F 99% 30.04 in 1.0 mi North 3.5 mph - 0.01 in   Overcast
1:25 PM 32.0 °F 26.4 °F 32.0 °F 100% 30.00 in 1.2 mi Variable 5.8 mph - N/A   Light Drizzle
1:54 PM 32.0 °F 27.5 °F 32.0 °F 100% 29.98 in 1.5 mi North 4.6 mph - N/A   Light Drizzle
1:58 PM 32.2 °F 27.7 °F 32.0 °F 99% 30.01 in 1.5 mi North 4.6 mph - 0.00 in   Light Drizzle
2:58 PM 32.4 °F - 32.2 °F 99% 29.98 in 1.5 mi North 2.3 mph - 0.00 in   Overcast
3:30 PM 32.0 °F 28.7 °F 32.0 °F 100% 29.95 in 3.0 mi NNW 3.5 mph - N/A   Overcast
3:58 PM 32.4 °F - 32.2 °F 99% 29.98 in 3.0 mi North 2.3 mph - N/A   Overcast
4:58 PM 32.4 °F - 32.2 °F 99% 29.95 in 3.0 mi North 2.3 mph - N/A   Overcast
5:58 PM 32.4 °F - 32.2 °F 99% 29.95 in 2.5 mi Calm Calm - N/A   Overcast
6:58 PM 32.4 °F - 32.2 °F 99% 29.94 in 2.5 mi Calm Calm - N/A   Overcast
7:58 PM 32.4 °F - 32.2 °F 99% 29.96 in 2.0 mi Calm Calm - N/A Fog Overcast
8:22 PM 32.0 °F - 32.0 °F 100% 29.92 in 0.5 mi SSW 2.3 mph - N/A Fog Fog
8:48 PM 32.0 °F - 32.0 °F 100% 29.92 in 0.5 mi South 2.3 mph - N/A Fog Fog
8:58 PM 32.5 °F - 32.4 °F 99% 29.95 in 0.5 mi South 2.3 mph - N/A Fog Fog
9:58 PM 32.5 °F - 32.4 °F 99% 29.96 in 0.5 mi SW 2.3 mph - N/A Fog Fog
10:58 PM 31.8 °F - 31.5 °F 99% 29.95 in 0.8 mi South 2.3 mph - N/A   Overcast
10:59 PM 32.0 °F - 32.0 °F 100% 29.92 in 1.5 mi SSW 2.3 mph - N/A   Overcast
11:00 PM 32.0 °F - 32.0 °F 100% 29.92 in 1.5 mi SSW 2.3 mph - N/A   Overcast
11:02 PM 32.0 °F - 32.0 °F 100% 29.92 in 1.5 mi SSW 2.3 mph - N/A   Overcast
11:04 PM 32.0 °F - 32.0 °F 100% 29.92 in 1.8 mi SSW 2.3 mph - N/A   Overcast
11:08 PM 32.0 °F - 32.0 °F 100% 29.92 in 2.0 mi SW 2.3 mph - N/A   Overcast
11:10 PM 32.0 °F - 32.0 °F 100% 29.92 in 2.5 mi SSW 2.3 mph - N/A   Overcast
11:13 PM 32.0 °F 28.7 °F 32.0 °F 100% 29.92 in 3.0 mi SSW 3.5 mph - N/A   Overcast
11:58 PM 31.8 °F 27.3 °F 31.6 °F 99% 29.95 in 5.0 mi SW 4.6 mph - N/A   Overcast